Wind_Speed
123 123 122 121 121 120 120 119 118 117 117 116 116 115 115 116 117 119 120 121 123 124 125 126 127 127 128 128 128 127 126 125 123 122 120 119 117 116 114 112 111 109 108 106 105 104 104 103 102 101 100 100 99 99 99 98 98 98 97 97 97 96 96 95 94 94 93 93 92 92 92 91 91 91 91 91 91 91 91 91 91 92 92 93 93 94
122 121 121 120 119 118 118 117 116 116 116 116 116 116 117 119 120 122 123 124 125 126 127 128 128 128 128 127 126 125 123 122 120 118 117 115 113 112 110 109 107 105 104 103 102 101 100 99 98 97 97 96 96 96 96 95 95 95 94 94 94 93 93 92 92 91 91 90 90 89 89 89 89 89 88 88 88 88 88 88 88 89 89 90 90 91
120 120 119 118 117 117 117 116 116 116 116 117 118 119 120 121 123 124 126 127 127 128 129 129 128 127 126 125 123 122 120 118 116 114 113 111 110 108 107 105 103 101 100 99 99 98 97 96 95 94 94 93 93 93 93 92 92 92 92 92 91 91 90 90 89 89 88 88 87 87 87 86 86 86 86 86 86 86 86 86 86 86 86 87 87 88
118 118 117 116 116 116 116 116 116 117 118 119 120 121 123 124 126 127 128 128 129 129 129 128 127 125 123 121 119 117 115 114 112 110 109 107 106 105 103 101 99 98 97 96 95 94 93 92 92 91 91 90 90 90 90 90 90 90 89 89 89 88 88 87 87 86 86 85 85 85 84 84 84 84 84 84 84 83 84 83 83 84 84 84 84 85
116 116 116 115 115 115 116 116 117 119 120 121 123 124 125 126 128 128 129 129 129 128 127 125 123 121 119 117 115 113 111 110 108 107 105 104 103 101 99 97 95 94 93 92 92 91 90 89 89 88 88 88 88 88 88 88 87 87 87 87 86 86 85 84 84 84 83 83 83 82 82 82 82 82 82 82 82 82 81 81 81 81 81 82 82 82
115 115 115 115 115 116 117 118 120 121 122 124 125 126 127 128 129 129 129 128 127 125 124 121 119 117 114 112 110 108 107 106 104 103 102 101 99 97 95 93 92 91 90 89 89 88 87 87 86 86 86 85 86 85 85 85 85 85 85 84 84 83 82 82 81 81 81 81 80 80 80 80 79 79 79 79 79 79 79 79 79 79 79 80 80 80
115 114 115 115 116 117 119 120 122 123 125 126 127 128 128 128 128 128 127 125 123 121 119 116 114 112 110 108 106 105 103 102 101 100 99 97 96 94 92 90 89 88 87 86 86 85 85 84 84 83 83 83 83 83 83 83 83 83 82 82 81 80 80 79 79 78 78 78 78 77 77 77 77 77 77 77 77 77 77 77 77 77 77 78 78 78
115 115 116 117 118 120 121 123 124 125 126 128 129 129 129 128 126 125 123 121 119 116 114 111 109 107 106 104 102 101 99 98 98 96 95 94 92 90 88 87 86 85 84 84 83 83 82 82 81 81 81 81 80 80 80 80 80 80 80 79 78 78 77 76 76 76 75 75 75 75 75 75 74 74 74 75 75 75 75 75 75 75 76 76 76 76
116 117 118 119 120 122 124 125 126 127 128 128 129 129 127 126 123 121 118 116 114 111 109 107 105 104 102 100 99 97 96 95 94 93 92 91 89 87 86 84 83 82 82 81 81 81 80 79 79 79 78 78 78 78 78 78 78 77 77 77 76 75 74 74 73 73 73 73 72 72 72 72 72 72 72 72 72 72 73 73 73 73 73 74 74 74
117 119 120 121 122 124 125 127 128 129 129 128 127 126 124 121 118 116 113 111 109 107 105 103 102 100 99 97 95 94 93 92 91 90 89 88 86 84 83 81 80 80 79 79 79 78 78 77 76 76 76 75 75 75 75 75 75 75 74 74 73 73 72 72 71 71 70 70 70 69 69 69 69 69 69 69 70 70 70 71 71 71 71 72 72 73
119 120 122 123 124 126 127 128 129 129 128 126 124 121 118 115 112 110 108 106 105 103 101 100 98 96 95 93 92 91 90 89 88 87 86 85 84 82 80 79 78 77 77 76 76 75 75 74 74 73 73 73 73 73 72 72 72 72 72 71 71 70 70 69 69 68 68 67 67 67 67 67 67 67 67 67 67 68 68 68 69 69 69 70 70 71
121 122 123 125 126 127 128 128 128 126 124 122 119 116 113 110 107 105 103 102 101 100 98 97 95 93 91 90 88 88 87 86 85 85 84 83 81 79 77 76 75 75 74 74 73 72 72 71 71 71 71 70 70 70 70 70 69 69 69 69 69 68 68 68 67 66 65 65 64 64 64 64 65 65 65 65 65 65 66 66 66 67 67 68 68 69
122 124 125 126 127 128 128 127 125 122 119 116 113 110 108 106 104 101 100 98 97 96 95 93 92 90 88 86 85 84 84 84 83 83 82 81 79 77 75 74 73 72 72 71 70 69 69 68 68 68 68 68 68 68 67 67 67 67 67 66 66 66 66 66 65 64 63 63 62 62 62 62 62 62 63 63 63 63 63 64 64 64 65 66 66 67
124 125 126 127 127 127 125 123 120 117 114 111 108 106 104 102 100 98 96 95 94 92 91 90 88 87 85 84 82 81 81 81 81 81 80 78 76 74 72 71 71 70 69 68 67 67 66 66 66 66 66 66 65 65 65 65 65 64 64 64 64 64 64 64 64 63 62 61 60 60 60 59 60 60 60 61 61 61 61 62 62 62 63 64 64 65
126 127 127 127 126 124 121 118 115 112 109 106 104 102 100 98 96 95 93 91 90 89 88 87 85 84 83 81 80 79 79 79 79 79 78 76 74 72 70 69 69 68 67 66 65 65 64 64 64 64 64 63 63 63 63 63 63 63 62 62 62 62 62 62 62 61 61 60 59 58 58 57 57 58 58 59 59 59 60 60 60 60 61 61 62 63
127 127 126 125 122 119 116 113 110 107 105 103 101 99 97 95 93 91 89 88 87 86 85 84 83 82 81 79 78 77 76 76 76 76 76 74 72 70 68 67 66 66 65 64 63 63 62 62 62 62 62 61 61 61 61 61 61 61 61 60 60 60 60 60 60 59 59 58 58 57 56 56 55 56 56 56 57 57 58 58 58 59 59 60 60 61
126 125 123 121 118 115 111 109 106 104 102 100 98 96 94 92 90 88 86 85 84 83 82 82 80 80 78 77 76 74 74 73 74 74 73 71 69 67 66 65 64 64 63 62 61 61 61 60 60 60 59 59 59 59 60 60 60 59 59 59 59 58 58 58 57 57 57 57 56 56 55 54 54 54 54 54 55 55 56 56 57 57 57 58 58 59
125 122 119 116 113 111 108 106 103 101 99 97 95 93 91 89 87 85 84 83 82 81 80 80 78 77 76 75 74 72 71 71 71 71 70 69 67 65 64 63 62 62 61 60 59 59 59 58 58 58 57 57 57 58 58 58 58 58 58 58 57 57 56 56 55 55 55 55 55 54 54 53 52 52 52 52 52 53 54 54 55 55 56 56 57 57
122 118 115 112 110 107 105 103 101 98 96 94 92 90 88 86 84 83 82 81 80 79 79 78 76 75 74 72 71 70 69 68 68 68 68 67 65 63 61 61 61 60 59 58 58 57 57 57 56 56 55 55 56 56 56 56 56 56 56 56 56 55 55 54 54 53 53 53 53 53 52 52 51 50 50 50 50 51 51 52 53 54 54 55 55 56
118 114 112 109 107 105 102 100 98 95 93 91 89 87 86 84 83 81 80 79 79 78 77 75 74 73 71 70 69 68 67 66 66 66 66 64 63 61 60 59 59 58 58 57 56 56 55 55 54 54 54 54 54 54 54 55 55 55 55 55 54 54 53 53 52 52 52 52 52 51 51 50 50 49 49 48 48 49 49 50 51 52 52 53 54 54
114 111 108 106 104 102 100 97 95 92 90 88 86 85 84 83 81 80 79 78 77 76 75 73 72 71 69 68 66 65 65 64 64 64 63 62 61 59 58 58 57 57 56 55 55 54 54 53 53 52 52 52 52 52 53 53 53 53 53 53 52 52 51 51 51 50 50 50 50 50 50 49 48 48 47 47 47 47 47 48 49 50 50 51 52 53
110 108 106 103 101 98 96 94 91 89 88 86 85 83 82 81 80 79 78 76 75 74 73 72 70 68 67 65 64 63 62 61 61 61 61 60 59 58 57 56 56 55 55 54 54 53 53 52 51 51 50 50 51 51 51 51 51 51 51 51 51 50 50 49 49 49 49 49 49 48 48 48 47 47 46 46 46 46 46 46 47 48 48 49 50 51
107 105 102 100 98 95 93 90 89 87 86 84 83 82 81 79 78 77 76 74 73 72 71 69 68 66 65 63 61 60 59 59 58 58 58 57 57 56 55 55 54 54 54 53 52 52 52 51 50 49 49 49 49 49 49 49 50 50 50 49 49 48 48 48 47 47 47 47 47 47 47 46 46 45 45 45 45 44 45 45 45 46 47 47 48 49
103 101 99 96 94 92 90 88 86 85 84 83 81 80 79 78 76 75 74 72 71 70 69 67 66 64 63 61 59 58 57 56 56 56 55 55 54 54 53 53 53 53 53 52 51 51 50 49 49 48 48 48 48 48 48 48 48 48 48 47 47 47 46 46 46 46 46 46 46 45 45 45 44 44 44 44 44 43 43 43 44 44 45 45 46 47
99 97 95 93 91 89 87 86 84 83 82 81 80 79 77 76 74 73 72 70 69 68 67 65 64 63 61 59 58 56 55 54 53 53 53 52 52 52 51 51 51 51 51 50 50 49 49 48 48 47 46 46 46 46 46 46 47 46 46 46 45 45 45 45 44 44 44 44 44 44 43 43 43 43 42 42 42 42 42 42 43 43 43 44 44 45
96 93 92 90 88 87 85 84 83 82 81 79 78 77 75 74 72 71 70 68 67 66 65 64 62 61 60 58 56 55 53 52 51 51 50 50 50 49 49 49 50 50 50 49 48 48 47 47 46 46 45 45 45 45 45 45 45 45 45 44 44 44 43 43 43 43 43 43 43 42 42 42 41 41 41 41 41 41 41 41 41 42 42 42 43 43
93 90 89 87 86 85 84 83 81 80 79 78 76 75 73 72 70 69 68 66 65 64 63 62 61 60 58 57 55 53 52 50 50 49 49 48 48 47 47 48 48 48 48 48 47 46 46 45 45 45 44 44 43 43 43 44 44 44 43 43 42 42 42 42 42 42 41 41 41 41 41 41 40 40 40 40 40 40 40 40 40 40 41 41 41 42
90 88 86 85 84 83 82 81 80 78 77 75 74 73 71 70 68 67 66 64 63 62 61 60 59 58 57 56 54 52 51 49 48 48 47 46 46 46 46 46 46 47 47 46 45 45 44 44 44 44 43 43 42 42 42 42 42 42 42 42 41 41 41 41 40 40 40 40 40 39 39 39 39 39 38 38 38 38 38 39 39 39 40 40 40 40
87 86 85 84 83 82 81 79 78 76 75 73 72 70 69 67 66 65 64 62 61 60 59 58 57 56 55 54 53 52 50 48 47 46 46 45 45 45 44 44 45 45 46 45 45 43 43 42 42 43 42 42 41 41 41 41 41 40 40 40 40 39 39 39 39 39 39 38 38 38 38 37 37 37 37 37 37 37 37 37 38 38 38 39 39 39
86 85 83 82 81 80 79 77 76 74 73 71 69 68 66 65 63 62 61 60 59 58 57 56 56 55 54 53 52 51 49 47 46 45 45 44 44 44 43 43 44 44 44 44 44 43 41 41 41 41 41 40 40 39 39 39 39 39 38 38 38 38 38 37 37 37 37 37 36 36 36 36 36 36 36 35 36 36 36 36 37 37 37 38 38 39
85 84 82 81 80 78 77 75 73 72 70 69 67 65 64 62 61 60 59 58 57 56 55 55 54 53 53 52 51 50 48 47 45 44 44 43 43 43 42 42 42 43 43 43 43 42 41 40 39 39 39 39 38 38 38 37 37 37 37 36 36 36 36 36 36 36 35 35 35 35 34 34 34 34 34 34 34 35 35 35 35 36 36 37 37 38
84 82 81 79 78 76 74 73 71 69 68 66 65 63 61 60 59 57 57 56 55 54 54 53 53 52 51 50 49 48 47 46 44 43 43 42 42 42 42 41 41 41 41 41 41 41 40 39 38 37 37 36 36 36 36 36 36 35 35 35 34 34 34 34 34 34 34 33 33 33 33 33 33 33 33 33 33 34 34 34 35 35 35 36 36 36
82 81 79 78 76 74 72 70 69 67 65 64 62 61 59 58 56 55 54 53 53 52 52 51 51 51 50 49 48 47 46 44 43 42 42 41 41 41 41 40 40 40 40 39 39 39 39 38 37 36 35 35 35 35 35 35 34 34 34 33 33 33 32 32 32 32 32 32 32 32 32 32 32 32 32 32 33 33 33 33 34 34 34 35 35 35
81 79 77 76 74 72 70 68 66 65 63 62 60 58 57 55 54 53 52 51 51 50 50 49 49 49 49 48 48 46 45 43 42 41 41 40 40 40 40 39 39 39 38 38 38 37 37 36 35 34 34 33 33 33 34 33 33 33 32 32 31 31 31 31 31 31 31 31 31 30 31 31 31 31 31 31 32 32 32 33 33 33 34 34 34 34
79 77 76 74 72 70 68 66 64 63 61 60 58 56 55 54 52 51 50 49 49 48 48 48 47 47 47 47 46 45 44 42 41 40 39 39 39 39 39 38 38 38 37 37 37 36 35 34 34 33 33 32 32 32 32 32 32 32 31 31 30 30 30 29 29 29 29 29 29 29 29 30 30 30 30 30 31 31 31 32 32 32 33 33 33 33
77 75 73 72 70 68 66 64 62 60 59 57 56 55 53 52 51 49 48 48 47 47 46 46 46 45 45 45 44 44 43 41 40 38 38 37 37 37 37 37 37 37 36 36 36 35 34 33 33 32 32 32 31 31 31 31 31 31 30 30 29 29 28 28 28 28 28 28 28 28 29 29 29 29 29 30 30 30 31 31 31 32 32 32 32 32
75 73 71 69 68 66 64 62 60 58 57 56 54 53 52 50 49 48 47 46 46 45 45 44 44 44 43 43 43 42 42 41 39 38 37 36 36 36 36 36 36 36 36 35 35 34 33 33 32 31 31 31 31 30 30 30 30 29 29 29 28 28 27 27 27 27 27 27 27 27 28 28 28 28 29 29 29 29 30 30 30 31 31 31 31 31
72 71 69 67 66 64 62 60 58 57 55 54 53 52 50 49 48 47 46 45 44 44 43 43 42 42 42 41 41 41 40 39 38 37 36 36 35 35 35 35 35 35 34 34 34 33 33 32 31 31 30 30 29 29 29 29 28 28 28 28 27 27 27 26 26 26 26 26 26 27 27 27 28 28 28 28 28 29 29 29 29 30 30 30 30 30
70 68 66 65 63 62 60 59 57 56 54 53 52 51 49 48 47 46 44 44 43 42 42 41 41 40 40 40 39 39 38 38 37 36 35 35 35 34 34 34 34 34 33 33 33 33 32 31 31 30 29 29 28 28 28 28 27 27 27 26 26 26 26 26 25 25 25 26 26 26 26 27 27 27 27 27 28 28 28 28 28 29 29 29 29 29
67 65 64 62 61 60 58 57 56 55 53 52 51 50 49 47 46 45 43 42 42 41 41 40 39 39 38 38 38 37 37 36 35 35 34 34 34 33 33 33 33 33 32 32 32 32 31 31 30 29 29 28 28 27 27 27 26 26 26 25 25 25 25 25 25 25 25 25 25 26 26 26 26 27 27 27 27 27 27 27 27 28 28 28 28 28
64 63 61 60 59 58 57 56 55 54 53 52 51 50 48 47 46 44 43 42 41 40 39 39 38 37 37 36 36 36 35 35 34 34 33 33 33 32 32 32 32 32 32 31 31 31 30 30 29 28 28 27 27 26 26 25 25 25 25 24 24 24 24 24 25 25 25 25 25 25 25 26 26 26 26 26 26 26 26 26 26 27 27 27 27 27
62 60 59 58 57 56 55 54 53 52 52 51 50 49 48 47 46 44 43 41 40 39 38 37 36 36 35 34 34 34 34 34 33 33 33 32 32 32 31 31 31 31 31 31 30 30 29 29 28 28 27 26 25 25 25 24 24 24 24 23 23 23 23 24 24 24 24 25 25 25 25 25 25 25 25 25 25 25 25 25 25 25 26 26 26 26
60 58 57 56 55 54 53 52 52 51 50 49 49 48 47 46 45 45 43 41 40 38 37 36 35 34 33 33 32 32 32 32 32 32 32 32 31 31 31 31 31 30 30 30 30 29 28 28 27 27 26 25 25 24 24 23 23 23 23 23 23 22 22 23 23 23 24 24 24 24 24 24 24 24 24 24 24 24 24 24 24 24 24 25 25 25
58 57 55 54 53 52 51 50 50 49 48 48 47 47 46 45 45 44 43 42 40 39 37 36 35 34 33 32 31 31 31 31 31 31 31 31 31 31 30 30 30 30 30 29 29 29 28 27 26 25 25 24 24 23 22 22 22 22 22 22 22 22 22 22 22 23 23 23 23 23 23 23 23 23 23 23 23 23 23 23 23 23 23 23 23 24
57 56 55 53 52 51 50 49 48 48 47 46 46 45 45 44 44 43 42 41 40 39 37 36 35 33 32 32 31 30 30 30 30 30 30 30 30 30 30 30 29 29 29 29 28 28 27 26 25 24 24 23 23 22 22 21 21 21 21 21 21 21 22 22 22 22 22 22 22 22 22 22 22 21 21 21 21 21 21 21 21 21 21 22 22 22
56 55 54 53 51 50 49 49 48 47 46 45 45 44 44 43 43 42 41 40 39 38 37 36 35 34 33 32 31 30 29 29 29 29 29 29 29 29 29 29 29 28 28 28 28 27 26 25 24 23 22 22 21 21 21 20 20 20 20 21 21 21 21 21 21 21 21 21 21 21 20 20 20 20 20 19 19 19 19 19 20 20 20 20 20 21
55 54 53 52 51 50 49 48 47 46 46 45 44 43 43 42 42 41 41 40 39 38 37 36 35 34 33 32 31 31 30 29 28 28 28 28 28 28 28 28 28 28 28 27 27 26 25 24 23 22 21 21 20 20 20 20 20 20 20 20 20 20 21 21 21 20 20 20 19 19 19 18 18 18 18 18 18 18 18 18 18 18 18 19 19 19
53 52 51 51 50 49 48 48 47 46 45 45 44 43 42 42 41 41 40 39 39 38 37 36 35 34 33 33 32 31 31 30 29 28 28 27 27 27 27 27 27 27 27 26 26 25 25 23 22 21 20 19 19 19 19 19 19 19 19 19 19 20 20 20 20 19 19 19 18 18 17 17 17 16 16 16 16 16 16 16 16 17 17 17 17 17
52 51 50 50 49 48 48 47 47 46 45 44 44 43 42 41 41 40 40 39 38 38 37 36 35 34 34 33 32 32 31 30 29 29 28 27 26 26 26 26 26 26 25 25 25 24 23 22 21 20 19 19 18 18 18 18 18 18 18 19 19 19 19 19 19 18 18 17 17 16 16 16 15 15 15 15 15 15 15 15 15 15 15 15 15 15
50 50 49 49 48 48 47 46 46 45 45 44 43 42 41 41 40 40 39 39 38 37 37 36 35 35 34 33 32 32 31 31 30 29 28 27 26 25 25 25 24 24 24 24 24 23 22 21 20 19 19 18 18 17 17 17 17 18 18 18 18 18 18 18 18 17 16 16 15 15 14 14 14 14 14 13 13 13 13 13 13 13 13 13 13 13
49 49 48 48 47 47 46 46 45 45 44 43 42 42 41 40 39 39 38 38 37 37 36 36 35 34 34 33 32 32 31 31 30 29 28 27 26 25 24 24 23 23 23 23 22 22 21 20 19 18 17 17 17 16 16 16 17 17 17 17 17 17 17 17 16 16 15 14 14 13 13 13 13 12 12 12 12 12 12 12 12 11 11 11 10 10
Wind_Direction
297 297 297 297 297 297 297 297 296 296 297 297 297 298 298 298 298 298 298 298 298 297 297 297 297 296 296 296 295 295 294 294 294 293 293 292 291 291 290 290 289 289 288 288 287 287 286 285 285 284 284 283 283 282 281 281 280 279 279 278 278 277 277 276 276 275 274 274 273 273 272 271 270 269 268 267 267 266 265 264 263 262 261 260 259 258
297 297 297 297 297 297 297 297 297 297 297 298 298 299 299 299 299 299 299 298 298 298 298 297 297 297 296 296 295 295 295 294 294 293 292 292 291 291 290 290 289 289 289 288 287 287 286 286 285 284 284 283 282 282 281 280 280 279 279 278 278 277 277 276 276 275 275 274 273 273 272 271 270 270 269 268 267 266 265 264 263 261 260 259 258 257
298 298 297 297 297 297 297 297 298 298 298 299 299 299 300 299 299 299 299 299 298 298 298 298 297 297 296 296 295 295 294 294 293 293 292 292 291 290 290 290 289 289 288 288 287 287 286 286 285 284 284 283 282 282 281 280 280 279 279 278 278 277 277 276 276 275 275 274 273 273 272 271 270 270 269 268 267 266 265 264 262 261 260 259 258 257
298 298 298 298 298 298 298 298 299 299 300 300 300 300 300 300 300 299 299 299 299 299 298 298 297 297 296 296 295 295 294 294 293 293 292 291 291 290 290 290 289 289 288 288 287 287 286 286 285 284 284 283 282 282 281 280 280 279 279 278 278 277 277 276 276 275 275 274 273 273 272 271 270 269 269 268 267 266 265 264 263 261 260 259 258 257
298 298 298 298 298 298 299 299 300 300 300 300 301 300 300 300 300 300 299 299 299 298 298 297 297 296 296 296 295 295 294 293 293 292 292 291 291 290 290 290 290 289 289 288 287 287 286 286 285 284 284 283 282 282 281 281 280 279 279 278 278 277 277 276 276 275 275 274 273 272 272 271 270 269 269 268 267 266 265 264 263 262 260 259 258 257
298 298 298 299 299 299 300 300 301 301 301 301 301 301 300 300 300 300 300 299 299 298 297 297 297 296 296 295 295 294 294 293 293 292 291 291 291 290 290 290 290 289 289 288 287 287 286 286 285 284 284 283 282 282 281 281 280 280 279 278 278 277 277 276 276 275 274 274 273 272 271 271 270 269 268 267 267 266 265 264 263 262 260 259 258 257
299 299 299 300 300 301 301 301 301 301 301 301 301 301 301 300 300 300 299 299 298 298 297 297 296 296 295 295 294 294 294 293 292 292 291 291 291 291 291 290 290 289 289 288 288 287 286 286 285 285 284 283 283 282 282 281 280 280 279 279 278 278 277 276 276 275 274 274 273 272 271 270 270 269 268 267 266 266 265 264 263 262 260 259 258 257
299 300 300 301 301 302 302 302 302 302 302 302 301 301 301 301 300 300 299 299 298 297 297 297 296 296 295 295 294 294 293 293 292 292 292 291 291 291 291 290 290 290 289 288 288 287 287 286 285 285 284 283 283 282 282 281 281 280 280 279 279 278 277 277 276 275 274 274 273 272 271 271 270 269 268 267 266 265 264 263 262 261 260 259 258 257
300 301 301 302 302 302 302 303 302 302 302 302 301 301 301 301 300 300 299 298 298 297 297 297 296 296 295 295 294 294 293 293 292 292 292 292 291 291 291 291 291 290 289 289 288 287 287 286 286 285 284 284 283 282 282 281 281 280 280 280 279 278 278 277 276 275 275 274 273 272 272 271 270 269 268 267 266 265 264 263 262 261 260 259 258 257
301 302 302 303 303 303 303 303 303 303 302 302 302 301 301 301 300 300 299 298 298 297 297 297 296 296 295 295 295 294 294 293 293 292 292 292 292 292 292 291 291 290 290 289 288 287 287 286 286 285 285 284 283 283 282 282 281 281 280 280 280 279 278 277 276 276 275 274 273 273 272 271 270 269 268 267 266 264 264 263 262 261 260 258 257 256
303 303 303 303 304 304 303 303 303 303 302 302 301 301 301 300 300 299 299 298 298 298 297 296 296 296 295 295 295 294 294 294 293 293 292 292 292 292 292 292 291 290 290 289 288 288 287 287 286 286 285 284 284 283 282 282 282 281 281 281 280 279 279 278 277 276 275 274 273 273 272 271 270 269 268 267 265 264 263 262 261 260 259 258 257 256
303 304 304 304 304 304 304 303 303 302 302 302 302 301 301 300 300 299 299 299 298 298 297 296 296 296 295 295 295 295 294 294 293 293 293 292 292 292 292 292 291 290 290 289 288 288 288 287 286 286 285 284 284 283 283 283 282 282 282 281 280 280 279 278 277 276 275 274 273 273 272 271 270 269 268 267 266 264 263 262 261 260 259 258 257 255
304 305 305 304 304 304 304 303 303 303 302 302 302 301 301 300 300 300 299 299 298 297 297 296 296 296 296 295 295 295 295 295 294 293 293 293 293 293 293 292 291 290 290 289 288 288 287 287 286 286 285 285 284 284 283 283 282 282 282 281 281 280 279 279 278 277 276 275 274 273 272 271 270 269 268 267 266 264 263 262 261 260 258 257 256 255
305 305 305 305 304 304 304 304 303 303 303 302 302 301 301 300 300 300 299 299 298 297 297 297 296 296 296 296 296 296 296 295 294 294 294 293 293 293 293 292 292 291 290 289 289 288 288 287 286 285 285 285 284 284 283 283 282 282 281 281 280 280 279 279 278 278 277 275 274 273 272 271 270 269 268 267 266 265 263 262 261 259 258 257 256 255
306 306 305 305 305 305 304 304 303 303 303 302 302 301 301 300 300 300 299 299 298 298 297 297 297 296 297 297 297 296 296 296 295 294 294 294 294 294 294 293 292 291 290 290 289 289 288 287 286 286 285 285 285 284 284 283 282 282 281 281 280 280 279 279 279 278 277 276 275 274 272 271 270 269 268 267 266 265 263 262 261 259 258 257 256 255
306 306 306 306 305 305 305 304 304 303 303 303 302 302 301 301 300 300 299 299 298 298 298 297 297 297 297 297 297 297 297 296 295 295 294 294 294 294 294 293 292 292 291 290 290 289 288 288 287 287 286 286 285 284 284 283 283 282 281 281 280 280 279 279 279 278 278 277 276 274 273 271 270 269 268 267 266 265 264 262 261 259 258 257 255 254
307 307 306 306 306 305 305 305 304 304 303 303 302 302 301 301 301 300 300 299 299 299 298 298 298 298 298 298 298 297 297 296 295 295 295 295 295 295 294 294 293 292 292 291 290 290 289 288 288 287 287 286 286 285 284 284 283 282 282 281 281 280 280 279 279 278 278 277 276 275 273 272 270 269 268 267 266 265 264 262 261 260 258 257 255 254
307 307 307 307 306 306 305 305 304 304 304 303 303 302 302 301 301 301 301 300 300 300 299 299 299 299 299 299 298 298 297 296 296 295 295 295 295 295 294 294 293 292 292 291 291 290 289 289 288 288 287 287 286 285 285 284 283 283 282 282 281 281 280 280 279 278 278 277 276 275 274 272 271 269 268 267 266 265 264 263 261 260 259 257 256 254
308 308 307 307 307 306 306 305 305 304 304 304 303 303 302 302 302 302 301 301 301 300 300 300 300 300 299 299 299 298 297 297 296 295 295 295 295 295 295 294 293 292 292 292 291 290 290 289 289 288 288 287 286 285 285 284 284 283 283 282 282 281 281 280 279 278 278 277 276 275 274 273 272 270 269 267 266 265 264 263 262 261 259 258 256 255
308 308 308 307 307 306 306 305 305 305 304 304 304 303 303 303 303 303 302 302 302 301 301 301 300 300 300 300 299 299 298 297 296 296 296 296 296 296 295 294 294 293 292 292 291 291 290 289 289 289 288 287 286 286 285 284 284 283 283 282 282 282 281 280 280 279 278 277 276 275 274 273 272 271 269 268 266 265 264 262 262 261 260 258 257 256
308 308 308 307 307 306 306 306 305 305 305 304 304 304 304 304 304 303 303 303 302 302 301 301 301 301 300 300 299 299 298 297 297 297 296 296 296 296 295 295 294 293 293 292 292 291 291 290 290 289 288 288 287 286 285 284 284 283 283 283 282 282 281 280 280 279 278 277 276 275 275 274 273 271 270 268 267 265 264 262 261 260 260 259 258 256
309 308 308 307 307 306 306 306 306 305 305 305 305 305 305 305 304 304 303 303 303 302 302 302 301 301 300 300 299 299 298 298 297 297 297 297 296 296 295 295 294 293 293 293 292 292 291 291 290 290 289 288 287 286 285 285 284 283 283 283 282 282 281 280 280 279 278 277 276 276 275 274 273 272 270 269 267 266 264 263 261 260 260 259 258 257
308 308 308 307 307 307 306 306 306 306 306 306 305 305 305 305 305 304 304 303 303 302 302 302 301 301 300 300 299 299 298 297 297 297 296 296 296 296 295 295 294 293 293 293 292 292 292 291 291 290 289 288 288 287 286 285 285 284 283 283 282 282 281 280 279 279 278 277 276 276 275 274 273 272 271 270 268 266 265 263 262 261 259 259 258 257
308 308 308 307 307 307 307 307 307 306 306 306 306 306 305 305 305 304 304 304 303 303 302 302 301 301 300 300 299 298 298 297 297 296 296 296 296 295 295 294 294 293 293 293 293 292 292 292 291 291 290 289 288 287 286 286 285 284 284 283 283 282 281 280 279 278 278 277 276 276 275 274 273 272 271 270 269 267 266 264 263 261 260 259 258 257
308 308 308 308 307 307 307 307 307 307 307 307 306 306 306 305 305 305 304 304 303 303 302 302 301 301 300 299 299 298 297 297 296 296 295 295 295 294 294 294 293 293 293 293 293 293 292 292 291 291 290 289 288 288 287 286 285 285 284 284 283 282 281 280 279 278 277 277 276 276 275 274 273 272 271 270 269 268 267 265 264 262 261 260 258 257
309 308 308 308 308 308 308 308 307 307 307 307 307 306 306 306 305 305 304 304 303 303 302 302 301 300 300 299 299 298 297 297 296 295 295 294 294 294 293 293 293 292 292 292 293 292 292 292 291 291 290 289 289 288 287 286 286 285 284 284 283 282 281 280 279 278 278 277 276 276 275 274 273 272 272 271 270 269 268 266 265 264 262 261 260 258
309 309 309 309 308 308 308 308 308 308 307 307 307 306 306 306 305 305 304 304 303 303 302 301 301 300 300 299 298 298 297 297 296 295 295 294 294 293 293 293 293 292 292 292 292 292 292 292 291 291 290 289 289 288 287 287 286 285 285 284 283 282 281 280 280 279 278 277 277 276 275 275 274 273 272 271 270 269 268 267 266 265 264 262 261 260
310 309 309 309 309 309 308 308 308 308 307 307 307 306 306 306 305 305 304 304 303 302 302 301 300 300 299 299 298 298 298 297 297 296 295 295 294 293 293 293 293 292 292 292 292 292 292 292 292 291 291 290 289 288 288 287 286 286 285 284 283 283 282 281 280 279 278 278 277 277 276 275 275 274 273 272 271 270 269 268 267 266 264 263 262 260
310 310 310 309 309 309 309 308 308 308 307 307 307 306 306 305 305 304 304 303 303 302 301 301 300 300 299 299 299 298 298 298 297 297 297 296 295 294 294 294 293 293 292 292 292 292 292 292 292 292 291 290 289 289 288 287 286 286 285 284 284 283 282 281 280 279 279 278 278 277 277 276 276 275 274 273 272 271 269 268 267 266 265 263 262 261
310 310 310 310 309 309 309 308 308 308 307 307 306 306 306 305 305 304 304 303 303 302 301 301 300 300 299 299 299 299 299 299 298 298 298 297 296 296 295 294 294 293 293 293 293 293 292 292 292 292 291 291 290 289 288 287 286 286 285 284 284 283 282 281 280 280 279 279 278 278 278 277 277 276 275 274 273 271 270 269 267 266 265 264 262 261
311 310 310 310 309 309 309 308 308 308 307 307 306 306 305 305 305 304 304 303 302 302 301 301 300 300 299 299 299 300 300 300 300 300 299 298 297 296 296 295 294 294 294 294 294 294 293 292 292 291 291 291 290 289 288 287 286 286 285 284 284 283 282 282 281 280 280 280 279 279 278 278 277 276 276 274 273 272 271 269 268 267 265 264 263 262
311 310 310 310 309 309 309 308 308 307 307 306 306 306 305 305 304 304 303 303 302 301 301 300 300 300 299 299 300 300 300 300 301 301 300 299 298 297 296 296 295 295 295 295 294 295 295 294 293 292 291 291 290 289 288 288 287 286 286 285 284 283 282 282 281 281 281 280 280 279 279 278 278 277 276 275 274 272 271 270 269 267 266 265 264 263
311 310 310 310 309 309 308 308 308 307 307 306 306 305 305 304 304 303 303 302 302 301 301 300 300 300 300 299 300 300 300 301 302 301 301 300 299 298 297 296 296 296 295 295 295 295 295 295 294 293 292 291 291 290 289 289 288 287 287 286 285 284 283 283 282 282 281 281 280 280 279 279 278 277 276 275 274 273 272 271 270 269 268 266 265 264
310 310 310 309 309 309 308 308 307 307 306 306 306 305 305 304 304 303 303 302 301 301 300 300 300 300 300 300 300 300 300 301 302 302 301 300 299 299 298 297 297 296 296 296 295 295 295 294 294 294 293 292 291 291 290 290 289 289 288 287 286 285 284 284 283 282 282 281 281 281 280 279 279 278 277 276 275 274 273 272 271 270 269 268 267 265
310 310 310 309 309 309 308 308 307 307 306 306 305 305 304 304 303 303 302 302 301 300 300 300 300 300 300 300 300 300 301 302 302 302 301 300 300 299 298 298 298 297 297 296 296 296 295 295 295 295 294 293 292 292 291 291 291 290 289 288 287 286 286 285 284 283 283 282 282 281 281 280 279 278 277 277 276 275 274 273 272 271 270 269 268 267
310 310 309 309 309 308 308 307 307 306 306 305 305 304 304 304 303 302 302 301 301 300 300 300 300 300 300 300 300 301 301 302 302 302 301 300 300 299 299 299 299 299 298 298 297 297 297 296 296 295 295 294 293 292 292 292 292 291 290 290 289 288 287 286 285 284 284 283 283 282 281 281 280 279 278 277 276 276 275 274 273 272 271 270 269 268
310 309 309 309 308 308 307 307 306 306 306 305 305 304 304 303 303 302 302 301 300 300 300 300 300 300 300 300 300 301 301 302 302 302 301 301 300 300 300 300 300 300 299 299 298 298 297 297 296 296 296 295 295 294 293 293 293 292 292 291 290 289 288 287 286 285 285 284 284 283 282 282 281 280 279 278 277 276 275 274 273 273 271 270 270 268
310 309 309 309 308 308 307 307 306 306 305 305 304 304 303 303 302 302 301 301 300 300 300 299 299 299 299 300 300 300 301 301 302 302 302 302 302 302 301 301 301 301 300 300 300 299 299 298 297 297 296 296 296 295 295 294 293 293 292 292 291 290 289 289 288 287 286 285 285 284 283 282 282 281 280 279 278 277 276 275 274 273 272 271 270 268
309 309 308 308 308 307 307 307 306 306 305 305 304 303 303 303 302 301 301 300 300 299 299 299 299 299 299 299 299 299 300 301 301 302 302 303 302 302 302 302 302 301 301 300 300 300 300 299 299 298 298 297 296 296 295 295 294 293 293 293 292 291 291 290 289 288 287 286 286 285 284 283 282 282 281 280 278 277 276 275 274 273 272 271 270 269
309 308 308 308 308 307 307 307 306 306 305 305 304 304 303 302 302 301 301 300 299 299 298 298 298 298 298 298 298 298 299 300 301 302 302 302 303 303 303 303 302 302 301 301 300 300 300 300 299 299 299 298 298 297 296 296 295 294 294 293 293 293 292 291 290 289 288 287 286 285 285 284 283 282 282 281 279 278 277 276 275 274 273 272 271 269
308 308 308 308 307 307 307 307 306 306 306 305 305 304 303 303 302 301 301 300 299 298 298 297 297 297 297 297 297 298 299 299 300 301 302 302 302 303 302 303 302 302 302 301 301 300 300 300 300 300 299 299 298 298 297 297 296 295 294 294 293 293 292 291 290 290 289 288 287 286 285 285 284 283 282 281 280 279 278 276 275 274 273 272 271 270
308 308 308 307 307 307 307 307 306 306 306 305 305 304 304 303 303 302 301 300 299 298 297 297 296 295 295 295 296 297 298 299 300 301 301 302 302 302 303 303 302 302 302 301 301 300 300 300 300 300 300 299 299 299 298 298 297 296 295 294 293 292 292 291 290 290 289 288 288 287 286 285 284 283 282 281 280 279 278 277 276 275 274 273 272 271
308 308 308 307 307 307 306 306 306 306 305 305 305 304 304 304 303 302 302 301 300 299 298 296 295 294 293 293 294 295 296 297 299 300 301 301 302 302 302 302 302 302 302 301 301 300 300 300 300 300 300 300 300 300 299 298 297 296 295 293 293 292 292 291 290 290 289 289 288 288 287 286 285 284 282 281 280 279 279 278 277 276 275 274 273 272
309 308 308 308 307 307 306 306 306 305 305 304 304 304 303 303 303 302 302 301 300 299 298 297 295 294 292 292 291 292 293 295 296 298 299 300 301 301 302 302 302 302 302 301 301 300 300 300 300 300 301 301 300 300 300 299 298 296 295 294 293 292 292 291 290 290 289 289 288 288 287 286 285 284 283 282 281 280 279 279 278 277 276 275 274 273
309 309 309 308 308 307 307 306 306 305 305 304 304 303 303 302 302 301 301 300 300 299 298 297 295 294 292 291 290 290 291 292 294 296 297 298 299 300 301 301 301 302 301 301 301 301 300 300 300 300 301 301 301 301 301 300 298 296 295 294 293 292 292 292 291 290 289 288 288 287 287 286 285 284 283 282 282 281 281 280 280 279 278 277 276 274
310 310 309 309 308 308 307 307 306 305 305 304 303 303 302 302 301 301 300 299 299 298 298 296 295 294 292 291 290 289 289 290 291 293 295 296 298 299 299 300 301 301 301 301 301 301 300 301 301 301 301 301 301 302 301 300 299 297 295 294 294 293 293 293 292 291 290 289 288 287 287 286 285 284 284 284 284 283 283 283 282 281 280 278 277 275
310 310 309 309 309 308 308 307 306 306 305 304 303 303 302 301 300 300 299 298 298 297 296 295 294 293 292 291 290 289 288 288 289 291 292 294 296 297 298 299 299 300 301 301 301 300 300 300 300 300 301 301 302 301 301 300 298 297 295 295 294 294 294 294 293 292 291 290 288 288 287 287 287 286 286 286 286 286 286 285 284 282 281 279 277 275
310 310 309 309 309 308 308 307 306 306 305 304 303 302 301 301 300 299 298 297 297 296 295 294 293 292 291 291 290 289 289 289 289 289 290 292 293 295 296 297 298 299 300 300 300 300 300 300 300 300 301 301 301 301 300 299 298 297 296 295 295 295 295 294 294 293 292 291 291 290 290 290 289 289 289 289 289 289 289 287 286 283 282 279 276 273
310 310 309 309 309 308 308 307 306 305 305 304 303 302 301 300 299 298 297 296 296 295 294 293 292 291 291 290 289 289 289 289 289 289 290 291 292 293 294 295 296 297 298 299 299 299 300 300 300 300 300 301 301 301 300 299 298 297 296 296 296 296 295 295 294 293 293 292 292 293 293 293 293 293 292 293 293 293 292 290 287 285 282 279 276 272
310 309 309 309 308 308 307 307 306 305 304 303 302 301 300 299 298 297 296 296 295 294 294 293 292 291 290 289 289 288 288 289 289 289 290 290 291 291 292 293 294 295 296 297 298 299 299 299 299 300 300 300 300 300 299 298 297 297 297 297 298 297 296 295 294 294 294 294 295 296 296 297 297 298 298 298 298 296 294 292 289 286 284 280 276 272
310 310 309 309 308 308 307 306 305 304 304 303 302 301 300 299 298 297 296 295 294 293 293 292 291 290 290 289 288 288 288 288 288 289 289 290 290 291 291 292 293 294 295 296 296 297 298 298 298 299 299 299 299 298 298 298 297 298 298 298 298 298 297 295 295 295 296 297 298 299 300 301 303 304 304 304 303 300 298 295 293 290 287 283 278 272
Height
10384 10377 10373 10369 10364 10359 10352 10347 10344 10340 10334 10328 10324 10321 10319 10315 10310 10305 10301 10297 10293 10288 10282 10277 10272 10268 10264 10259 10254 10249 10245 10240 10236 10232 10229 10225 10221 10217 10214 10211 10209 10206 10204 10201 10198 10195 10192 10189 10187 10184 10182 10179 10177 10174 10171 10169 10167 10165 10164 10162 10161 10160 10159 10159 10159 10159 10160 10160 10160 10160 10161 10161 10162 10162 10163 10164 10165 10166 10167 10169 10170 10172 10174 10175 10177 10179
10372 10367 10362 10358 10354 10349 10342 10336 10332 10329 10325 10320 10315 10311 10307 10304 10300 10294 10289 10285 10280 10275 10270 10265 10260 10255 10250 10245 10240 10237 10232 10228 10224 10220 10217 10212 10209 10205 10202 10200 10197 10195 10193 10190 10187 10184 10181 10179 10176 10174 10171 10169 10166 10163 10161 10159 10157 10155 10154 10152 10151 10150 10149 10149 10149 10149 10150 10150 10150 10150 10151 10151 10151 10152 10152 10153 10154 10155 10156 10158 10159 10160 10162 10164 10166 10168
10363 10357 10351 10347 10344 10339 10334 10327 10322 10318 10314 10310 10307 10302 10297 10293 10288 10282 10277 10272 10267 10262 10256 10251 10247 10242 10238 10233 10229 10224 10220 10216 10212 10208 10204 10200 10197 10194 10191 10189 10188 10185 10182 10179 10176 10174 10171 10169 10166 10164 10161 10159 10155 10153 10150 10149 10147 10145 10144 10142 10141 10140 10140 10140 10140 10140 10140 10140 10140 10140 10140 10140 10140 10141 10142 10142 10144 10145 10146 10147 10149 10149 10152 10154 10155 10157
10354 10349 10342 10337 10332 10329 10324 10319 10314 10309 10304 10300 10297 10292 10287 10282 10276 10270 10265 10261 10256 10250 10244 10238 10234 10230 10226 10221 10217 10213 10209 10204 10200 10197 10193 10189 10186 10183 10181 10180 10178 10175 10172 10169 10166 10164 10161 10159 10156 10154 10151 10149 10145 10143 10141 10139 10137 10135 10134 10132 10132 10131 10131 10130 10130 10130 10130 10130 10130 10130 10130 10130 10131 10131 10132 10132 10134 10134 10136 10137 10137 10139 10141 10143 10145 10147
10343 10339 10334 10328 10323 10318 10314 10310 10305 10300 10295 10290 10285 10282 10277 10272 10265 10259 10253 10249 10244 10238 10232 10227 10222 10218 10214 10210 10206 10202 10198 10194 10190 10185 10182 10179 10175 10173 10172 10170 10169 10166 10163 10160 10157 10154 10152 10149 10147 10144 10142 10139 10136 10134 10132 10129 10128 10126 10125 10124 10123 10122 10122 10122 10122 10121 10121 10121 10121 10121 10121 10122 10122 10122 10122 10122 10123 10124 10126 10127 10128 10129 10131 10133 10135 10137
10332 10329 10325 10320 10315 10309 10304 10300 10295 10291 10285 10279 10274 10269 10265 10261 10255 10249 10243 10237 10231 10225 10220 10215 10211 10207 10204 10200 10195 10191 10187 10184 10179 10175 10171 10168 10165 10164 10163 10161 10159 10157 10154 10150 10147 10145 10142 10140 10138 10135 10132 10130 10127 10125 10122 10120 10119 10117 10115 10115 10114 10114 10114 10113 10113 10113 10112 10112 10112 10112 10112 10112 10112 10113 10113 10114 10114 10115 10115 10117 10118 10120 10121 10123 10125 10127
10322 10318 10314 10311 10307 10302 10295 10290 10285 10281 10277 10271 10263 10256 10251 10248 10244 10238 10232 10227 10220 10214 10209 10205 10201 10197 10193 10189 10185 10181 10177 10174 10169 10165 10161 10159 10157 10155 10154 10152 10150 10147 10144 10141 10138 10135 10133 10131 10129 10126 10123 10120 10118 10115 10114 10111 10109 10108 10106 10105 10105 10105 10105 10105 10104 10104 10104 10104 10103 10104 10104 10104 10104 10104 10104 10105 10105 10106 10107 10108 10109 10110 10111 10113 10115 10117
10314 10309 10304 10300 10296 10292 10287 10279 10273 10268 10265 10262 10254 10246 10239 10235 10230 10225 10220 10215 10209 10204 10199 10195 10190 10186 10182 10179 10175 10172 10168 10164 10159 10155 10152 10149 10147 10146 10145 10144 10142 10139 10135 10132 10129 10127 10124 10122 10120 10117 10114 10112 10110 10107 10105 10102 10100 10099 10098 10097 10097 10097 10096 10096 10095 10095 10095 10095 10095 10095 10095 10095 10095 10095 10096 10097 10097 10097 10098 10099 10100 10101 10103 10104 10106 10108
10305 10300 10295 10290 10285 10281 10276 10270 10262 10255 10250 10247 10242 10236 10230 10225 10219 10213 10207 10202 10197 10193 10189 10185 10180 10176 10172 10169 10166 10162 10159 10154 10150 10147 10143 10140 10139 10138 10137 10135 10133 10130 10127 10124 10120 10118 10115 10114 10111 10109 10106 10104 10101 10099 10097 10094 10092 10091 10090 10089 10089 10089 10088 10088 10087 10087 10087 10087 10087 10087 10087 10087 10087 10087 10088 10088 10089 10089 10090 10090 10092 10093 10094 10095 10097 10099
10295 10291 10287 10282 10276 10270 10265 10260 10252 10245 10239 10234 10229 10224 10219 10215 10210 10204 10197 10191 10186 10182 10179 10175 10170 10167 10163 10159 10156 10153 10149 10145 10141 10137 10135 10132 10131 10130 10129 10127 10124 10122 10119 10115 10112 10109 10107 10105 10103 10100 10098 10095 10093 10091 10089 10087 10085 10084 10082 10082 10081 10080 10080 10079 10079 10079 10079 10079 10079 10079 10079 10079 10079 10079 10080 10080 10080 10081 10082 10082 10084 10084 10086 10087 10089 10090
10285 10282 10277 10272 10265 10259 10254 10248 10242 10235 10229 10224 10218 10212 10207 10203 10199 10195 10189 10183 10177 10172 10168 10164 10160 10157 10155 10151 10147 10144 10140 10136 10132 10129 10126 10124 10123 10122 10121 10119 10116 10113 10110 10107 10104 10102 10099 10097 10095 10092 10090 10087 10085 10084 10081 10079 10078 10076 10075 10074 10073 10072 10072 10071 10071 10071 10071 10071 10071 10071 10071 10071 10071 10071 10072 10072 10072 10073 10074 10075 10075 10077 10078 10079 10080 10082
10277 10272 10267 10262 10255 10249 10243 10236 10230 10224 10218 10213 10208 10202 10196 10191 10187 10184 10180 10174 10169 10163 10158 10154 10150 10148 10146 10143 10139 10135 10132 10127 10124 10120 10117 10116 10115 10115 10114 10111 10108 10105 10102 10099 10097 10094 10092 10090 10087 10084 10082 10080 10078 10076 10074 10072 10071 10069 10068 10067 10065 10065 10064 10064 10064 10064 10064 10064 10064 10064 10064 10064 10064 10064 10064 10064 10065 10065 10066 10067 10068 10069 10070 10071 10072 10074
10267 10262 10257 10250 10244 10238 10232 10225 10219 10212 10207 10202 10197 10192 10187 10181 10177 10174 10170 10165 10160 10155 10150 10145 10141 10139 10137 10135 10132 10128 10124 10119 10115 10112 10109 10108 10107 10107 10106 10103 10100 10097 10094 10092 10089 10087 10085 10082 10080 10077 10075 10073 10072 10070 10068 10066 10064 10063 10062 10060 10059 10057 10057 10056 10055 10056 10056 10057 10057 10057 10057 10057 10057 10057 10057 10057 10057 10058 10059 10060 10060 10062 10063 10064 10065 10067
10257 10252 10246 10239 10232 10225 10220 10214 10208 10202 10196 10191 10187 10182 10177 10172 10168 10164 10160 10155 10150 10146 10142 10137 10134 10130 10129 10127 10124 10121 10117 10112 10107 10104 10101 10100 10100 10100 10099 10095 10092 10089 10087 10085 10083 10080 10078 10075 10073 10070 10069 10067 10065 10064 10062 10060 10059 10057 10055 10054 10052 10051 10050 10049 10049 10049 10049 10049 10049 10050 10050 10050 10050 10050 10050 10050 10050 10051 10052 10052 10054 10054 10055 10057 10058 10059
10245 10240 10234 10227 10220 10214 10208 10202 10197 10191 10186 10181 10177 10172 10167 10163 10159 10155 10151 10147 10142 10137 10134 10129 10125 10123 10120 10119 10117 10114 10109 10104 10100 10095 10093 10092 10092 10092 10090 10087 10084 10081 10080 10078 10076 10074 10071 10069 10066 10064 10062 10061 10059 10057 10055 10054 10052 10050 10049 10048 10047 10045 10044 10043 10042 10042 10042 10042 10042 10043 10043 10043 10043 10043 10043 10043 10044 10044 10045 10045 10046 10047 10049 10050 10051 10052
10234 10229 10222 10215 10209 10202 10196 10191 10185 10180 10176 10171 10167 10162 10158 10154 10150 10146 10142 10138 10134 10129 10125 10122 10119 10115 10112 10111 10109 10106 10102 10097 10092 10089 10086 10085 10084 10084 10083 10080 10077 10074 10072 10071 10069 10067 10064 10062 10060 10058 10056 10055 10053 10051 10049 10047 10046 10045 10043 10042 10040 10039 10039 10037 10037 10036 10036 10035 10035 10036 10036 10037 10037 10037 10037 10037 10037 10037 10038 10039 10040 10040 10042 10043 10044 10045
10224 10217 10210 10204 10198 10191 10185 10180 10175 10170 10166 10162 10157 10152 10148 10144 10141 10137 10134 10130 10125 10122 10117 10114 10112 10109 10105 10103 10101 10099 10095 10090 10086 10082 10080 10078 10078 10077 10076 10073 10070 10067 10066 10065 10063 10060 10058 10055 10054 10052 10050 10049 10047 10045 10043 10042 10040 10039 10037 10036 10035 10034 10033 10032 10032 10031 10030 10030 10029 10029 10030 10030 10030 10030 10031 10031 10031 10031 10032 10032 10033 10034 10035 10036 10037 10039
10212 10205 10199 10193 10187 10180 10175 10170 10165 10160 10157 10152 10148 10143 10139 10135 10132 10129 10125 10122 10118 10114 10110 10107 10104 10102 10099 10096 10093 10091 10089 10084 10080 10076 10074 10072 10072 10071 10070 10067 10064 10061 10060 10059 10057 10055 10052 10050 10048 10047 10045 10043 10041 10039 10037 10035 10034 10033 10032 10030 10030 10029 10028 10027 10026 10025 10025 10024 10024 10023 10023 10024 10024 10025 10025 10025 10025 10025 10026 10026 10027 10027 10029 10030 10031 10032
10200 10194 10188 10182 10177 10170 10165 10160 10155 10152 10147 10143 10139 10134 10130 10127 10124 10121 10117 10114 10110 10106 10103 10100 10097 10094 10092 10089 10086 10084 10081 10077 10074 10070 10067 10066 10065 10065 10064 10060 10058 10055 10054 10053 10051 10049 10047 10045 10043 10042 10040 10038 10036 10034 10032 10030 10029 10027 10026 10025 10024 10024 10023 10022 10021 10020 10019 10019 10018 10017 10017 10018 10018 10019 10019 10020 10020 10020 10020 10021 10021 10022 10022 10024 10025 10026
10189 10183 10177 10172 10167 10161 10155 10150 10146 10142 10139 10134 10130 10126 10122 10119 10115 10113 10109 10106 10102 10099 10095 10093 10090 10087 10085 10083 10080 10077 10074 10070 10067 10064 10062 10060 10059 10059 10057 10055 10052 10050 10049 10047 10045 10044 10041 10039 10038 10037 10035 10033 10031 10029 10027 10025 10024 10022 10021 10020 10019 10019 10017 10017 10016 10015 10014 10014 10013 10012 10012 10012 10013 10013 10014 10014 10015 10015 10015 10015 10016 10017 10017 10018 10019 10020
10180 10173 10167 10162 10157 10152 10147 10142 10137 10134 10130 10126 10122 10118 10114 10111 10108 10105 10102 10099 10095 10092 10089 10086 10084 10081 10079 10077 10074 10070 10068 10065 10061 10058 10055 10054 10054 10052 10051 10049 10047 10044 10043 10042 10040 10038 10036 10035 10033 10032 10030 10028 10026 10024 10022 10021 10019 10018 10017 10015 10015 10014 10013 10012 10011 10010 10009 10009 10008 10007 10007 10007 10007 10008 10008 10009 10009 10010 10010 10010 10011 10011 10012 10012 10014 10014
10171 10165 10159 10153 10149 10144 10139 10134 10130 10125 10122 10118 10114 10111 10107 10104 10100 10097 10094 10091 10088 10085 10082 10079 10077 10075 10073 10070 10068 10065 10062 10059 10056 10054 10051 10049 10048 10047 10045 10044 10041 10039 10037 10036 10034 10033 10031 10030 10029 10027 10025 10024 10022 10020 10018 10016 10015 10014 10012 10011 10010 10009 10009 10007 10007 10005 10004 10004 10003 10002 10002 10002 10002 10002 10003 10003 10004 10004 10005 10005 10006 10006 10007 10007 10008 10009
10163 10157 10150 10145 10140 10135 10131 10127 10122 10118 10114 10111 10108 10104 10100 10097 10094 10090 10087 10084 10081 10079 10075 10073 10071 10069 10067 10065 10063 10060 10058 10055 10052 10049 10047 10044 10043 10042 10040 10038 10036 10034 10032 10031 10030 10028 10026 10025 10024 10022 10020 10019 10017 10015 10014 10012 10010 10009 10008 10007 10006 10005 10004 10003 10002 10001 10000 9999 9999 9998 9998 9998 9998 9998 9998 9998 9999 9999 10000 10000 10001 10002 10002 10002 10004 10004
10155 10149 10143 10137 10132 10128 10124 10119 10115 10111 10107 10104 10100 10097 10094 10090 10087 10084 10081 10078 10075 10072 10069 10067 10065 10063 10061 10060 10059 10056 10054 10051 10048 10045 10043 10040 10039 10037 10035 10034 10031 10029 10027 10027 10025 10024 10022 10020 10019 10017 10016 10014 10012 10010 10009 10007 10006 10005 10004 10002 10002 10000 10000 9999 9997 9997 9995 9995 9994 9994 9994 9994 9994 9994 9994 9994 9994 9994 9995 9995 9996 9997 9997 9998 9999 9999
10147 10141 10135 10130 10125 10120 10117 10112 10109 10105 10101 10097 10093 10090 10087 10084 10080 10077 10074 10072 10069 10066 10063 10061 10059 10057 10055 10054 10053 10051 10049 10047 10044 10042 10039 10037 10035 10033 10031 10029 10027 10025 10023 10022 10021 10019 10017 10015 10014 10013 10012 10010 10008 10007 10005 10004 10002 10000 9999 9999 9997 9997 9995 9994 9994 9992 9992 9991 9990 9990 9989 9989 9989 9989 9989 9989 9989 9990 9990 9990 9991 9992 9992 9993 9994 9995
10139 10134 10129 10124 10119 10114 10110 10106 10102 10098 10094 10090 10087 10084 10080 10077 10074 10072 10069 10066 10063 10060 10058 10055 10053 10051 10050 10049 10047 10046 10045 10042 10040 10038 10035 10034 10031 10029 10027 10025 10023 10021 10019 10017 10017 10015 10013 10011 10010 10009 10007 10006 10004 10002 10001 9999 9998 9997 9995 9994 9994 9992 9991 9990 9989 9989 9988 9987 9986 9986 9985 9985 9985 9985 9985 9985 9985 9985 9986 9986 9987 9987 9988 9989 9989 9990
10131 10126 10121 10117 10112 10107 10103 10099 10095 10092 10088 10084 10081 10077 10074 10072 10069 10065 10063 10060 10058 10055 10053 10050 10048 10046 10044 10043 10042 10041 10040 10038 10036 10034 10032 10030 10027 10025 10023 10021 10019 10017 10015 10014 10012 10011 10009 10007 10005 10004 10004 10002 10000 9999 9997 9995 9994 9993 9992 9990 9990 9989 9987 9987 9985 9985 9984 9984 9983 9982 9982 9982 9982 9982 9982 9982 9982 9982 9982 9982 9983 9983 9984 9984 9985 9986
10124 10119 10114 10110 10105 10100 10097 10093 10089 10085 10082 10079 10075 10072 10069 10066 10063 10060 10057 10055 10053 10050 10048 10045 10044 10041 10039 10038 10037 10036 10035 10034 10032 10029 10027 10025 10024 10022 10019 10017 10015 10013 10011 10009 10009 10007 10006 10004 10002 10000 9999 9998 9997 9995 9994 9992 9990 9989 9988 9987 9986 9985 9984 9983 9982 9981 9980 9980 9979 9979 9979 9978 9978 9978 9978 9978 9978 9978 9978 9979 9979 9979 9979 9980 9980 9981
10116 10112 10107 10103 10099 10095 10090 10087 10083 10080 10077 10073 10070 10067 10064 10060 10058 10055 10052 10050 10048 10045 10043 10040 10039 10037 10035 10033 10032 10031 10030 10029 10027 10025 10023 10021 10019 10017 10015 10014 10011 10009 10007 10005 10004 10004 10002 10000 9999 9997 9995 9994 9993 9992 9990 9989 9987 9986 9985 9984 9982 9982 9980 9979 9979 9978 9977 9977 9976 9975 9975 9975 9975 9974 9974 9974 9974 9974 9974 9975 9975 9975 9975 9975 9976 9977
10109 10104 10100 10097 10092 10089 10085 10081 10077 10074 10071 10068 10065 10062 10059 10056 10053 10050 10047 10045 10043 10040 10038 10036 10034 10032 10030 10029 10027 10025 10025 10024 10023 10021 10019 10017 10015 10013 10012 10010 10007 10005 10004 10002 10000 9999 9999 9997 9995 9994 9992 9990 9989 9988 9987 9985 9984 9983 9982 9980 9979 9978 9977 9976 9975 9975 9974 9974 9973 9972 9972 9972 9971 9971 9971 9971 9971 9971 9971 9971 9971 9971 9971 9971 9972 9972
10102 10098 10094 10090 10087 10083 10079 10075 10072 10069 10065 10063 10060 10057 10054 10051 10049 10046 10043 10040 10039 10036 10034 10032 10029 10028 10026 10024 10023 10021 10020 10020 10019 10017 10015 10013 10011 10009 10008 10006 10004 10002 10000 9999 9997 9995 9994 9993 9992 9991 9989 9987 9985 9984 9983 9982 9980 9980 9979 9977 9976 9975 9974 9973 9972 9972 9971 9970 9970 9969 9969 9969 9968 9968 9967 9967 9967 9967 9967 9967 9967 9967 9967 9967 9968 9969
10095 10091 10087 10084 10080 10077 10074 10070 10067 10064 10060 10058 10055 10052 10050 10047 10045 10042 10039 10037 10034 10032 10030 10027 10025 10024 10022 10020 10019 10017 10016 10015 10014 10013 10011 10009 10007 10005 10004 10002 10000 9999 9997 9995 9994 9992 9990 9989 9988 9987 9986 9984 9982 9981 9980 9979 9978 9977 9975 9975 9974 9972 9971 9970 9970 9969 9968 9967 9967 9966 9966 9965 9965 9965 9964 9964 9964 9964 9964 9964 9964 9964 9964 9964 9964 9965
10089 10085 10082 10078 10075 10072 10069 10065 10062 10059 10056 10053 10050 10048 10046 10044 10041 10038 10035 10033 10030 10029 10026 10024 10022 10020 10018 10016 10015 10014 10013 10012 10010 10009 10007 10005 10003 10001 10000 9999 9997 9995 9994 9992 9990 9989 9987 9985 9984 9983 9982 9981 9979 9978 9977 9975 9975 9974 9973 9972 9970 9970 9969 9968 9967 9966 9965 9965 9964 9964 9963 9962 9962 9962 9961 9960 9960 9960 9960 9960 9960 9960 9960 9960 9960 9961
10083 10079 10076 10072 10069 10067 10064 10060 10057 10054 10052 10049 10046 10044 10042 10039 10037 10035 10032 10030 10027 10025 10023 10020 10019 10017 10014 10012 10011 10010 10009 10009 10007 10005 10004 10002 10000 9998 9996 9995 9994 9992 9990 9989 9987 9985 9984 9982 9981 9980 9979 9977 9977 9975 9974 9973 9972 9971 9970 9969 9968 9967 9966 9965 9964 9964 9963 9962 9961 9960 9960 9959 9959 9959 9958 9958 9957 9957 9957 9957 9957 9957 9957 9957 9957 9958
10077 10074 10070 10067 10064 10062 10059 10056 10053 10050 10047 10045 10042 10040 10038 10035 10034 10031 10029 10027 10024 10022 10019 10017 10015 10014 10012 10009 10007 10006 10005 10005 10004 10002 10000 9999 9997 9995 9993 9992 9990 9989 9987 9985 9984 9982 9981 9980 9978 9977 9975 9974 9974 9972 9971 9970 9969 9968 9967 9967 9965 9965 9964 9963 9962 9961 9960 9959 9959 9958 9957 9957 9956 9955 9955 9955 9955 9954 9954 9954 9954 9954 9954 9954 9954 9955
10072 10068 10065 10062 10059 10057 10054 10051 10049 10046 10044 10040 10039 10036 10034 10032 10030 10028 10025 10023 10021 10019 10016 10014 10012 10010 10009 10007 10005 10003 10002 10000 10000 9999 9997 9996 9994 9992 9990 9989 9987 9985 9984 9982 9981 9980 9978 9977 9975 9974 9973 9972 9970 9970 9969 9968 9967 9965 9965 9964 9963 9962 9961 9960 9959 9959 9958 9957 9956 9955 9955 9954 9954 9953 9952 9952 9952 9952 9951 9951 9950 9950 9950 9950 9950 9951
10067 10063 10060 10057 10054 10052 10049 10047 10044 10042 10039 10037 10035 10032 10030 10028 10026 10024 10022 10020 10017 10015 10014 10011 10009 10007 10005 10004 10002 10000 9998 9997 9996 9995 9994 9992 9991 9989 9987 9985 9984 9983 9981 9979 9978 9977 9975 9974 9972 9972 9970 9969 9968 9967 9966 9965 9964 9964 9962 9962 9960 9960 9959 9958 9957 9956 9955 9954 9954 9953 9952 9952 9951 9950 9950 9950 9949 9949 9949 9948 9948 9947 9947 9947 9947 9947
10062 10059 10055 10052 10049 10047 10044 10042 10040 10037 10035 10033 10031 10029 10027 10025 10023 10021 10019 10017 10014 10012 10010 10009 10007 10005 10003 10001 9999 9997 9995 9994 9993 9992 9990 9989 9988 9987 9985 9983 9981 9980 9979 9977 9975 9974 9972 9971 9970 9969 9968 9967 9966 9965 9964 9963 9962 9961 9960 9959 9959 9957 9956 9955 9954 9954 9953 9952 9951 9950 9950 9949 9949 9948 9947 9947 9947 9946 9945 9945 9945 9944 9944 9944 9944 9944
10057 10054 10051 10048 10045 10042 10040 10037 10035 10033 10031 10029 10027 10025 10023 10021 10019 10017 10015 10014 10012 10009 10007 10005 10004 10002 10000 9999 9997 9995 9993 9992 9990 9989 9988 9986 9985 9984 9982 9980 9979 9977 9976 9974 9973 9971 9970 9969 9967 9966 9965 9964 9964 9963 9962 9961 9960 9959 9958 9957 9956 9955 9954 9953 9952 9951 9950 9950 9949 9948 9947 9947 9946 9945 9945 9944 9944 9944 9943 9942 9942 9942 9941 9941 9941 9941
10054 10050 10047 10044 10041 10038 10035 10033 10031 10029 10027 10025 10022 10020 10019 10017 10015 10014 10012 10010 10009 10007 10005 10003 10001 10000 9998 9996 9994 9992 9991 9989 9988 9987 9985 9984 9982 9981 9980 9978 9977 9975 9974 9972 9970 9969 9968 9966 9965 9964 9963 9962 9961 9960 9960 9959 9958 9957 9956 9955 9954 9953 9952 9951 9950 9949 9948 9947 9947 9945 9945 9944 9944 9943 9942 9942 9942 9941 9940 9940 9940 9939 9939 9939 9938 9938
10049 10046 10043 10040 10037 10034 10032 10029 10027 10024 10022 10020 10018 10016 10015 10013 10012 10010 10009 10007 10006 10004 10002 10000 9999 9997 9995 9994 9992 9990 9989 9987 9985 9984 9983 9982 9980 9979 9977 9976 9974 9972 9971 9970 9968 9967 9965 9964 9963 9962 9961 9960 9959 9959 9958 9957 9956 9955 9954 9953 9952 9951 9950 9949 9948 9947 9946 9945 9944 9944 9943 9942 9942 9941 9940 9940 9939 9939 9939 9938 9937 9937 9936 9936 9936 9935
10045 10042 10040 10037 10034 10031 10028 10025 10023 10020 10019 10016 10014 10012 10010 10009 10007 10006 10005 10004 10002 10001 9999 9998 9996 9994 9993 9992 9990 9988 9986 9984 9983 9982 9980 9979 9978 9976 9975 9974 9972 9970 9969 9967 9966 9965 9964 9962 9961 9960 9959 9959 9957 9957 9955 9955 9954 9953 9952 9951 9950 9949 9948 9947 9946 9945 9944 9944 9942 9942 9941 9940 9940 9939 9939 9938 9937 9937 9936 9935 9935 9934 9934 9934 9933 9933
10041 10039 10035 10033 10030 10027 10025 10022 10020 10017 10015 10013 10010 10009 10007 10005 10003 10002 10000 10000 9999 9997 9996 9995 9994 9992 9990 9989 9987 9986 9984 9982 9981 9979 9978 9977 9975 9974 9973 9971 9970 9969 9967 9965 9964 9962 9962 9960 9959 9959 9957 9957 9956 9955 9954 9953 9952 9951 9950 9949 9948 9947 9946 9945 9944 9944 9942 9942 9941 9940 9940 9939 9938 9937 9937 9936 9935 9935 9934 9934 9933 9932 9932 9931 9930 9930
10037 10034 10032 10029 10026 10024 10021 10019 10017 10014 10012 10010 10007 10005 10003 10001 10000 9998 9997 9995 9994 9994 9992 9992 9990 9989 9988 9987 9985 9984 9982 9980 9979 9977 9975 9974 9973 9972 9970 9969 9967 9966 9965 9964 9962 9960 9960 9959 9958 9957 9956 9955 9954 9953 9952 9952 9950 9949 9949 9947 9946 9945 9945 9944 9943 9942 9941 9940 9939 9939 9938 9937 9937 9935 9935 9934 9934 9932 9932 9931 9931 9930 9930 9929 9929 9929
10032 10029 10027 10024 10022 10020 10017 10015 10013 10010 10009 10006 10004 10002 10000 9998 9996 9995 9993 9992 9990 9990 9989 9988 9987 9985 9984 9984 9982 9982 9980 9979 9977 9975 9974 9972 9971 9970 9968 9967 9965 9964 9962 9961 9960 9959 9957 9957 9956 9955 9954 9954 9952 9952 9950 9950 9949 9948 9947 9945 9945 9944 9943 9942 9941 9940 9940 9939 9938 9937 9937 9935 9935 9934 9934 9932 9931 9930 9930 9929 9929 9929 9928 9927 9927 9927
10027 10025 10022 10020 10018 10015 10013 10011 10009 10007 10005 10003 10001 9999 9997 9995 9993 9991 9990 9989 9987 9986 9985 9984 9984 9982 9981 9980 9979 9979 9977 9977 9975 9974 9972 9970 9969 9967 9966 9965 9964 9962 9960 9959 9958 9957 9956 9955 9954 9953 9952 9952 9951 9950 9949 9948 9947 9946 9945 9944 9943 9942 9941 9940 9940 9939 9938 9937 9937 9935 9935 9934 9934 9933 9932 9930 9930 9929 9928 9928 9927 9927 9926 9925 9925 9925
10023 10020 10019 10016 10014 10012 10009 10007 10005 10003 10001 9999 9997 9995 9994 9992 9990 9988 9987 9985 9984 9983 9982 9981 9980 9979 9978 9977 9976 9975 9975 9974 9973 9972 9970 9969 9967 9965 9964 9963 9961 9960 9959 9957 9956 9955 9954 9953 9952 9952 9951 9950 9949 9949 9947 9947 9945 9945 9944 9942 9942 9941 9940 9939 9938 9937 9937 9936 9935 9934 9933 9932 9932 9931 9930 9929 9928 9927 9927 9926 9926 9925 9925 9924 9924 9923
10020 10017 10015 10012 10010 10008 10005 10003 10001 9999 9997 9995 9994 9992 9990 9988 9986 9985 9983 9982 9980 9979 9979 9977 9977 9975 9975 9974 9973 9972 9972 9970 9970 9969 9968 9967 9965 9964 9962 9961 9960 9958 9957 9955 9954 9954 9952 9952 9951 9950 9949 9949 9948 9947 9946 9945 9944 9943 9942 9941 9940 9940 9939 9938 9937 9936 9935 9935 9934 9933 9932 9931 9930 9929 9929 9927 9927 9926 9925 9925 9924 9924 9923 9922 9922 9921
10016 10014 10011 10009 10007 10004 10002 10000 9997 9995 9994 9992 9990 9988 9987 9985 9983 9981 9980 9979 9977 9976 9975 9974 9973 9972 9972 9971 9970 9969 9969 9968 9967 9966 9965 9964 9964 9962 9960 9959 9958 9957 9955 9954 9953 9952 9951 9950 9949 9949 9948 9947 9946 9945 9945 9944 9943 9942 9941 9940 9939 9939 9937 9937 9936 9935 9934 9934 9932 9932 9931 9930 9929 9928 9927 9927 9925 9925 9924 9923 9922 9922 9921 9920 9920 9919
10013 10010 10008 10005 10003 10000 9999 9996 9994 9992 9990 9988 9986 9985 9983 9981 9980 9978 9977 9975 9974 9973 9972 9971 9970 9969 9969 9968 9967 9966 9965 9965 9964 9964 9963 9962 9961 9960 9959 9957 9956 9955 9954 9952 9952 9950 9949 9949 9948 9947 9946 9945 9945 9944 9943 9942 9942 9940 9940 9939 9938 9937 9937 9936 9935 9934 9933 9932 9931 9930 9930 9929 9928 9927 9926 9925 9924 9924 9922 9922 9921 9920 9919 9919 9918 9918
10010 10007 10005 10002 10000 9997 9995 9993 9990 9989 9986 9984 9983 9981 9979 9978 9977 9975 9974 9972 9971 9970 9969 9968 9967 9966 9965 9965 9964 9964 9963 9962 9962 9961 9960 9959 9959 9958 9957 9955 9954 9954 9952 9951 9950 9949 9948 9947 9947 9946 9945 9944 9944 9943 9942 9941 9940 9939 9939 9938 9937 9937 9935 9935 9934 9933 9932 9931 9930 9930 9929 9928 9927 9926 9925 9924 9924 9922 9921 9920 9920 9919 9918 9917 9917 9916